• Em Portugal
  • Lista de países
  • Para 7 dias
  • Temperatura da água
  • Mapas de satélite
  • Mapa do tempo
  • Widgets de tempo
  • user-avatar
    Iniciar Sessão

    Previsão horária em São Miguel de Tucumán

    Hoje, 23 Fevereiro, Sexta-feira

    Tempo Temperatura Precipitação Vento Pressão Humidade
    00:00 +26°C° 0 mm 1 m/s 720 mmHg 65%
    01:00 +25°C° 0 mm 1 m/s 720 mmHg 65%
    02:00 +25°C° 0 mm 1 m/s 720 mmHg 66%
    03:00 +24°C° 0 mm 1 m/s 720 mmHg 68%
    04:00 +24°C° 0 mm 1 m/s 720 mmHg 69%
    05:00 +23°C° 0 mm 1 m/s 719 mmHg 70%
    06:00 +24°C° 0 mm 1 m/s 720 mmHg 69%
    07:00 +25°C° 0 mm 2 m/s 720 mmHg 67%
    08:00 +25°C° 0 mm 2 m/s 720 mmHg 65%
    09:00 +27°C° 0 mm 2 m/s 720 mmHg 59%
    10:00 +29°C° 0 mm 3 m/s 720 mmHg 52%
    11:00 +31°C° 0 mm 3 m/s 720 mmHg 46%
    12:00 +31°C° 0 mm 3 m/s 720 mmHg 45%
    13:00 +33°C° 0 mm 3 m/s 719 mmHg 44%
    14:00 +33°C° 0 mm 3 m/s 719 mmHg 42%
    15:00 +33°C° 0 mm 3 m/s 718 mmHg 43%
    16:00 +33°C° 0 mm 3 m/s 718 mmHg 45%
    17:00 +32°C° 0 mm 2 m/s 718 mmHg 46%
    18:00 +30°C° 0 mm 2 m/s 718 mmHg 50%
    19:00 +28°C° 0 mm 1 m/s 718 mmHg 55%
    20:00 +26°C° 0 mm 1 m/s 719 mmHg 59%
    21:00 +26°C° 0 mm 1 m/s 719 mmHg 60%
    22:00 +26°C° 0 mm 1 m/s 720 mmHg 61%
    23:00 +25°C° 0 mm 1 m/s 720 mmHg 61%

    Amanhã, 24 Fevereiro, Sábado

    Tempo Temperatura Precipitação Vento Pressão Humidade
    00:00 +25°C° 0 mm 1 m/s 720 mmHg 63%
    01:00 +25°C° 0 mm 1 m/s 720 mmHg 64%
    02:00 +22°C° 0 mm 0 m/s 720 mmHg 65%
    03:00 +22°C° 0 mm 0 m/s 720 mmHg 67%
    04:00 +21°C° 0 mm 0 m/s 720 mmHg 68%
    05:00 +21°C° 0 mm 0 m/s 720 mmHg 69%
    06:00 +24°C° 0 mm 1 m/s 720 mmHg 67%
    07:00 +25°C° 0 mm 1 m/s 721 mmHg 65%
    08:00 +25°C° 0 mm 1 m/s 722 mmHg 63%
    09:00 +27°C° 0 mm 1 m/s 722 mmHg 58%
    10:00 +29°C° 0 mm 1 m/s 722 mmHg 53%
    11:00 +30°C° 0 mm 2 m/s 722 mmHg 48%
    12:00 +31°C° 0 mm 2 m/s 722 mmHg 48%
    13:00 +31°C° 0 mm 2 m/s 721 mmHg 47%
    14:00 +31°C° 0 mm 2 m/s 720 mmHg 47%
    15:00 +31°C° 0,2 mm 2 m/s 720 mmHg 49%
    16:00 +30°C° 0,2 mm 2 m/s 719 mmHg 51%
    17:00 +30°C° 0,2 mm 1 m/s 719 mmHg 52%
    18:00 +29°C° 0,1 mm 1 m/s 719 mmHg 57%
    19:00 +27°C° 0,1 mm 1 m/s 720 mmHg 61%
    20:00 +26°C° 0,1 mm 1 m/s 720 mmHg 65%
    21:00 +25°C° 0,1 mm 1 m/s 721 mmHg 67%
    22:00 +25°C° 0,1 mm 1 m/s 721 mmHg 68%
    23:00 +25°C° 0,1 mm 1 m/s 722 mmHg 70%

    Depois de amanhã, 25 Fevereiro, Domingo

    Tempo Temperatura Precipitação Vento Pressão Humidade
    00:00 +25°C° 0,1 mm 1 m/s 722 mmHg 69%
    01:00 +24°C° 0,1 mm 1 m/s 722 mmHg 69%
    02:00 +24°C° 0,1 mm 1 m/s 721 mmHg 69%
    03:00 +24°C° 0 mm 1 m/s 721 mmHg 70%
    04:00 +24°C° 0 mm 1 m/s 721 mmHg 71%
    05:00 +23°C° 0 mm 1 m/s 721 mmHg 72%
    06:00 +24°C° 0 mm 1 m/s 722 mmHg 71%
    07:00 +25°C° 0 mm 1 m/s 722 mmHg 69%
    08:00 +26°C° 0 mm 1 m/s 722 mmHg 68%
    09:00 +27°C° 0 mm 1 m/s 722 mmHg 62%
    10:00 +29°C° 0 mm 1 m/s 723 mmHg 56%
    11:00 +30°C° 0 mm 1 m/s 723 mmHg 51%
    12:00 +31°C° 0,1 mm 2 m/s 722 mmHg 50%
    13:00 +31°C° 0,1 mm 2 m/s 721 mmHg 50%
    14:00 +32°C° 0,1 mm 2 m/s 720 mmHg 50%
    15:00 +31°C° 0,4 mm 2 m/s 720 mmHg 53%
    16:00 +31°C° 0,4 mm 1 m/s 719 mmHg 55%
    17:00 +30°C° 0,4 mm 1 m/s 719 mmHg 58%
    18:00 +29°C° 0,6 mm 1 m/s 719 mmHg 63%
    19:00 +28°C° 0,6 mm 1 m/s 719 mmHg 67%
    20:00 +26°C° 0,6 mm 1 m/s 720 mmHg 71%
    21:00 +26°C° 0,7 mm 1 m/s 720 mmHg 73%
    22:00 +25°C° 0,7 mm 1 m/s 721 mmHg 75%
    23:00 +25°C° 0,7 mm 1 m/s 721 mmHg 76%

    26 Fevereiro, Segunda-feira

    Tempo Temperatura Precipitação Vento Pressão Humidade
    00:00 +24°C° 0,3 mm 1 m/s 721 mmHg 78%
    01:00 +24°C° 0,3 mm 1 m/s 720 mmHg 79%
    02:00 +24°C° 0,3 mm 1 m/s 720 mmHg 80%
    03:00 +23°C° 0,2 mm 1 m/s 720 mmHg 82%
    04:00 +23°C° 0,2 mm 1 m/s 720 mmHg 83%
    05:00 +22°C° 0,2 mm 1 m/s 719 mmHg 84%
    06:00 +23°C° 0,2 mm 1 m/s 720 mmHg 80%
    07:00 +25°C° 0,2 mm 1 m/s 720 mmHg 77%
    08:00 +24°C° 0,2 mm 0 m/s 721 mmHg 73%
    09:00 +27°C° 0,6 mm 1 m/s 720 mmHg 69%
    10:00 +29°C° 0,6 mm 1 m/s 720 mmHg 65%
    11:00 +30°C° 0,6 mm 2 m/s 720 mmHg 60%
    12:00 +30°C° 1,1 mm 2 m/s 719 mmHg 61%
    13:00 +31°C° 1,1 mm 2 m/s 719 mmHg 62%
    14:00 +31°C° 1,1 mm 2 m/s 718 mmHg 62%
    15:00 +31°C° 2,1 mm 2 m/s 717 mmHg 64%
    16:00 +31°C° 2,1 mm 2 m/s 717 mmHg 65%
    17:00 +30°C° 2,1 mm 1 m/s 717 mmHg 66%
    18:00 +29°C° 1 mm 1 m/s 717 mmHg 70%
    19:00 +27°C° 1 mm 1 m/s 717 mmHg 73%
    20:00 +26°C° 1 mm 1 m/s 718 mmHg 77%
    21:00 +25°C° 1,5 mm 1 m/s 718 mmHg 79%
    22:00 +24°C° 1,5 mm 1 m/s 718 mmHg 81%
    23:00 +24°C° 1,5 mm 1 m/s 719 mmHg 83%

    27 Fevereiro, Terça-feira

    Tempo Temperatura Precipitação Vento Pressão Humidade
    00:00 +23°C° 1,1 mm 1 m/s 718 mmHg 83%
    01:00 +23°C° 1,1 mm 1 m/s 718 mmHg 82%
    02:00 +23°C° 1,1 mm 1 m/s 718 mmHg 82%
    03:00 +23°C° 0,7 mm 1 m/s 718 mmHg 81%
    04:00 +22°C° 0,7 mm 1 m/s 718 mmHg 80%
    05:00 +22°C° 0,7 mm 1 m/s 717 mmHg 79%
    06:00 +23°C° 0,2 mm 1 m/s 718 mmHg 76%
    07:00 +25°C° 0,2 mm 1 m/s 718 mmHg 72%
    08:00 +26°C° 0,2 mm 1 m/s 719 mmHg 68%
    09:00 +28°C° 0,7 mm 1 m/s 719 mmHg 63%
    10:00 +30°C° 0,7 mm 2 m/s 719 mmHg 58%
    11:00 +31°C° 0,7 mm 2 m/s 719 mmHg 52%
    12:00 +32°C° 1,3 mm 2 m/s 718 mmHg 55%
    13:00 +32°C° 1,3 mm 2 m/s 718 mmHg 59%
    14:00 +32°C° 1,3 mm 2 m/s 717 mmHg 62%
    15:00 +31°C° 2 mm 2 m/s 717 mmHg 63%
    16:00 +31°C° 2 mm 2 m/s 717 mmHg 65%
    17:00 +30°C° 2 mm 1 m/s 716 mmHg 66%
    18:00 +29°C° 1,2 mm 1 m/s 717 mmHg 69%
    19:00 +27°C° 1,2 mm 1 m/s 717 mmHg 73%
    20:00 +26°C° 1,2 mm 2 m/s 717 mmHg 76%
    21:00 +25°C° 0,8 mm 1 m/s 718 mmHg 78%
    22:00 +24°C° 0,8 mm 1 m/s 718 mmHg 81%
    23:00 +24°C° 0,8 mm 1 m/s 719 mmHg 84%

    28 Fevereiro, Quarta-feira

    Tempo Temperatura Precipitação Vento Pressão Humidade
    00:00 +23°C° 1,6 mm 1 m/s 718 mmHg 85%
    01:00 +23°C° 1,6 mm 1 m/s 718 mmHg 86%
    02:00 +23°C° 1,6 mm 2 m/s 718 mmHg 87%
    03:00 +23°C° 0,5 mm 1 m/s 718 mmHg 86%
    04:00 +23°C° 0,5 mm 1 m/s 718 mmHg 85%
    05:00 +23°C° 0,5 mm 1 m/s 718 mmHg 84%
    06:00 +24°C° 0,6 mm 1 m/s 718 mmHg 82%
    07:00 +25°C° 0,6 mm 1 m/s 718 mmHg 80%
    08:00 +26°C° 0,6 mm 1 m/s 719 mmHg 78%
    09:00 +28°C° 0,3 mm 2 m/s 719 mmHg 71%
    10:00 +30°C° 0,3 mm 2 m/s 719 mmHg 64%
    11:00 +33°C° 0,3 mm 3 m/s 719 mmHg 56%
    12:00 +33°C° 1,3 mm 3 m/s 718 mmHg 59%
    13:00 +33°C° 1,3 mm 3 m/s 718 mmHg 62%
    14:00 +33°C° 1,3 mm 3 m/s 717 mmHg 65%
    15:00 +31°C° 1,5 mm 3 m/s 717 mmHg 67%
    16:00 +30°C° 1,5 mm 2 m/s 716 mmHg 69%
    17:00 +30°C° 1,5 mm 2 m/s 716 mmHg 71%
    18:00 +28°C° 1,4 mm 2 m/s 716 mmHg 76%
    19:00 +26°C° 1,4 mm 1 m/s 717 mmHg 80%
    20:00 +25°C° 1,4 mm 1 m/s 717 mmHg 85%
    21:00 +24°C° 1,2 mm 1 m/s 718 mmHg 87%
    22:00 +24°C° 1,2 mm 1 m/s 718 mmHg 89%
    23:00 +23°C° 1,2 mm 1 m/s 718 mmHg 90%
    Mostrar mais